CDT,Max TemperatureF,Mean TemperatureF,Min TemperatureF,Max Dew PointF,MeanDew PointF,Min DewpointF,Max Humidity, Mean Humidity, Min Humidity, Max Sea Level PressureIn, Mean Sea Level PressureIn, Min Sea Level PressureIn, Max VisibilityMiles, Mean VisibilityMiles, Min VisibilityMiles, Max Wind SpeedMPH, Mean Wind SpeedMPH, Max Gust SpeedMPH,PrecipitationIn, CloudCover, Events, WindDirDegrees
2012-10-1,71,54,37,45,40,36,93,65,29,29.96,29.89,29.82,10,10,7,8,1,,0.00,0,,187
2012-10-2,71,58,44,48,45,43,94,69,38,29.96,29.92,29.87,10,9,4,8,3,,0.00,0,,33
2012-10-3,71,56,42,55,45,41,100,78,35,30.01,29.97,29.93,10,5,0,8,1,,0.00,4,Fog,59
2012-10-4,69,56,42,52,40,32,100,64,30,30.06,29.95,29.88,10,8,0,22,5,28,0.00,2,Fog,243
2012-10-5,53,45,37,32,27,21,75,51,30,30.07,30.02,29.96,10,10,10,22,11,29,0.00,2,,261
2012-10-6,48,44,39,30,26,21,65,53,42,30.18,30.10,30.00,10,10,10,15,10,23,0.00,7,,308
2012-10-7,53,42,32,28,22,14,75,49,22,30.18,30.11,30.03,10,10,10,13,4,20,0.00,3,,261
2012-10-8,60,46,32,30,26,19,64,45,29,30.03,29.90,29.78,10,10,10,23,9,32,0.00,3,,189
2012-10-9,55,46,37,46,39,30,93,77,38,29.83,29.79,29.73,10,9,4,17,10,25,0.18,7,Rain,217
2012-10-10,50,41,32,34,28,21,93,68,32,30.07,30.00,29.84,10,10,10,15,8,24,0.00,3,,266
2012-10-11,55,45,35,34,27,16,61,48,26,30.31,30.04,29.88,10,10,10,17,9,23,0.00,5,Rain,273
2012-10-12,51,38,26,34,23,16,86,57,24,30.47,30.37,30.22,10,10,10,9,3,,0.00,0,,166
2012-10-13,53,47,41,52,45,32,94,91,70,30.23,29.89,29.73,10,3,0,10,5,,0.87,8,Fog-Rain,149
2012-10-14,53,48,44,52,46,41,100,92,81,29.75,29.64,29.54,10,7,0,14,8,22,1.70,8,Fog-Rain,351
2012-10-15,59,48,37,39,36,32,93,69,38,29.93,29.88,29.76,10,10,10,12,6,,0.00,2,,293
2012-10-16,69,53,37,46,42,34,93,71,38,29.89,29.68,29.46,10,10,10,16,5,21,0.00,2,,134
2012-10-17,69,55,41,55,49,37,100,82,49,29.46,29.36,29.22,10,6,0,16,4,23,0.27,4,Fog-Rain,168
2012-10-18,53,48,42,52,44,41,94,87,71,29.42,29.29,29.19,10,9,3,14,5,21,0.25,8,Rain,186
2012-10-19,50,46,42,45,42,41,93,88,71,29.64,29.54,29.43,10,9,4,7,3,,0.04,8,Rain,16
2012-10-20,55,47,37,43,41,36,93,81,58,29.89,29.76,29.64,10,10,5,8,4,,0.00,6,,289
2012-10-21,62,47,32,46,40,32,100,75,42,30.00,29.95,29.89,10,7,0,10,2,,0.00,0,Fog,132
2012-10-22,60,52,44,52,48,43,94,80,67,29.99,29.96,29.92,10,7,2,9,3,,0.00,6,,44
2012-10-23,60,56,51,59,54,46,100,90,77,29.96,29.90,29.84,10,4,0,8,4,,0.01,7,Fog-Rain,93
2012-10-24,73,66,59,64,62,57,100,87,69,29.90,29.83,29.71,10,4,0,12,3,16,0.00,7,Fog,138
2012-10-25,69,54,37,64,53,30,94,80,65,30.04,29.69,29.52,10,9,2,18,12,29,0.33,5,Rain,212
2012-10-26,44,38,32,32,27,21,87,65,46,30.34,30.25,30.06,10,10,10,15,8,24,0.00,3,,279
2012-10-27,44,35,26,28,20,12,86,59,27,30.37,30.32,30.29,10,10,10,13,3,17,0.00,1,,324
2012-10-28,46,36,26,27,22,18,86,63,32,30.39,30.35,30.32,10,10,10,8,2,,0.00,0,,15
2012-10-29,51,37,23,28,23,19,93,62,28,30.38,30.31,30.19,10,10,7,10,3,17,0.00,0,,355
2012-10-30,46,40,33,28,24,16,75,57,32,30.18,30.00,29.89,10,10,10,21,10,26,0.00,0,,339
2012-10-31,50,41,30,30,23,12,81,57,29,29.88,29.85,29.82,10,10,10,15,8,22,0.00,0,,311